[[{"header":{"parameterUnit":"m.s-1","parameterCategory":1,"la1":30.2991,"la2":30.254,"lo1":-89.0895,"lo2":-89.0444,"dy":0.0017,"dx":0.0017,"nx":28,"ny":28,"refTime":"2025-01-15T09:00:00:Z","depth":0,"parameterNumber":2,"parameterNumberName":"U-component_of_WINDS"},"data":[0,0,0,0,0,0,0,0,0,0,0,0,0,0,0,0,0,0,0,0,0,0,0,0,0,0,0,0,0,0,0,0,0,0,0,0,0,0,0,0,0,0,0,0,0,0,0,0,0,0,0,0,0,0,0,0,0,0,1.8232,1.8232,0,1.8295,1.8296,1.8296,1.8238,1.8236,1.8233,1.8231,1.8297,1.83,1.8304,0,0,0,0,0,0,0,0,0,0,0,0,0,1.8062,1.8065,1.8231,1.8232,1.8233,1.8295,1.8296,1.8297,1.8238,1.8236,1.8233,1.823,1.8295,1.83,1.8305,0,0,0,0,0,0,0,0,0,0,0,0,0,1.8132,1.8067,1.8231,1.8211,1.821,1.8295,1.8296,1.8297,1.8239,1.8235,1.8232,1.8229,1.8294,1.8299,1.8305,1.8413,0,0,1.8323,1.8326,0,0,0,0,0,0,0,0,1.8128,1.8138,1.8214,1.8213,1.8212,1.8255,1.826,1.8336,1.824,1.8228,1.8231,1.8227,1.8286,1.8292,1.8312,1.8416,1.8418,1.8324,1.8327,1.833,1.8332,0,0,0,0,0,0,0,1.8123,1.8135,1.8257,1.8215,1.8214,1.82,1.8206,1.8274,1.8276,1.8229,1.8225,1.8233,1.8284,1.8306,1.8313,1.8419,1.8324,1.8329,1.8333,1.8335,1.8618,1.8622,0,0,0,0,0,0,1.812,1.8131,1.8254,1.8258,1.816,1.8206,1.8213,1.8245,1.8275,1.8276,1.8236,1.823,1.8298,1.8306,1.8315,1.8444,1.833,1.8335,1.8339,1.8614,1.8619,1.8623,0,0,0,0,0,0,1.8117,1.8132,1.8252,1.8194,1.8208,1.8213,1.8249,1.8248,1.8269,1.828,1.8281,1.8258,1.8295,1.8306,1.8389,1.8446,1.8338,1.8344,1.8609,1.8616,1.8621,1.8703,0,0,0,0,0,0,1.8112,1.8131,1.8171,1.8195,1.8211,1.8325,1.8253,1.8252,1.828,1.8273,1.8301,1.8302,1.8293,1.8381,1.8395,1.8452,1.8348,1.8604,1.8612,1.8619,1.8696,1.8711,1.8725,0,0,0,0,0,1.8106,1.8191,1.8173,1.8188,1.8262,1.8328,1.8338,1.8326,1.8284,1.8325,1.8333,1.8301,1.8437,1.839,1.8406,1.8465,1.8601,1.861,1.8619,1.8689,1.8708,1.8724,0,0,0,0,0,0,1.8172,1.8193,1.8174,1.8269,1.8298,1.8318,1.8369,1.8346,1.8387,1.8378,1.8362,1.8369,1.8457,1.8469,1.8416,1.8572,1.8513,1.8525,1.8561,1.8579,1.8593,1.8589,1.8353,0,0,0,0,0,1.8198,1.825,1.8266,1.8348,1.8363,1.8364,1.8393,1.8382,1.841,1.8422,1.8435,1.8465,1.8515,1.8547,1.8593,1.8697,1.8704,1.8746,1.8761,1.8773,1.8784,1.8842,1.8862,1.8653,1.8653,1.8652,0,0,1.8251,1.8269,1.8303,1.8362,1.8382,1.8438,1.8375,1.8435,1.8476,1.8431,1.851,1.8522,1.8554,1.8649,1.8691,1.8661,1.8843,1.8784,1.8794,1.8798,1.8853,1.8873,1.8891,1.8659,1.8658,1.8657,0,0,1.8377,1.8395,1.8467,1.849,1.8522,1.8523,1.854,1.8565,1.8571,1.8651,1.8619,1.8668,1.8753,1.8778,1.8802,1.8941,1.8914,1.8957,1.9033,1.909,1.9107,1.9121,1.9172,1.9191,1.8968,1.8968,1.8968,0,1.8439,1.852,1.8507,1.857,1.8598,1.8561,1.8634,1.8657,1.8703,1.8724,1.869,1.8798,1.8817,1.8918,1.8952,1.8972,1.8993,1.8953,1.9105,1.912,1.9133,1.9182,1.9201,1.8973,1.8973,1.8972,1.8972,0,1.8596,1.8653,1.8708,1.8754,1.8788,1.8856,1.8854,1.889,1.8877,1.8882,1.8965,1.8987,1.9038,1.9061,1.9048,1.9161,1.9142,1.9108,1.9047,1.9158,1.9204,1.9222,1.898,1.8978,1.8977,1.8976,0,0,1.8763,1.8803,1.8823,1.8845,1.888,1.8924,1.8992,1.9042,1.9075,1.9109,1.9166,1.9241,1.921,1.9237,1.9227,1.9277,1.9388,1.9236,1.9237,1.9265,1.9517,1.9543,1.9564,1.9371,1.9374,1.9377,1.9514,0,1.8891,1.9008,1.8999,1.9111,1.9165,1.9132,1.9191,1.922,1.9226,1.9274,1.9281,1.9335,1.9289,1.9306,1.9354,1.9364,1.9439,1.9354,1.9425,1.9428,1.9418,1.9588,1.9615,1.9744,1.9532,1.9535,1.9537,0,1.9055,1.9096,1.9213,1.9242,1.9264,1.9318,1.9365,1.941,1.9443,1.9444,1.9477,1.9459,1.9529,1.9468,1.9565,1.9508,1.9537,1.9547,1.9551,1.9558,1.9489,1.9599,1.9784,1.9804,1.9565,1.9562,1.956,0,1.9167,1.9251,1.9332,1.9352,1.9387,1.9426,1.9443,1.9472,1.9504,1.9546,1.9566,1.9616,1.9643,1.9682,1.9678,1.9634,1.9778,1.9716,1.9782,1.9783,1.9814,1.9812,2.0006,1.9832,1.9832,1.9831,1.9831,0,1.931,1.9383,1.9383,1.9433,1.9515,1.9506,1.9587,1.96,1.9626,1.9679,1.9654,1.9704,1.9697,1.9748,1.9746,1.9828,1.984,1.9845,1.9843,1.9847,1.9847,1.9865,1.9857,1.9836,1.9835,1.9834,1.9833,0,1.9448,1.9451,1.9538,1.9566,1.9575,1.9634,1.9658,1.9706,1.9712,1.978,1.9795,1.9804,1.9863,1.9864,1.9932,1.9931,2.0031,2.002,2.002,2.0018,2.0085,2.0079,2.0299,2.0327,2.0134,2.0136,2.0137,0,1.954,1.9596,1.963,1.9664,1.9684,1.9738,1.9771,1.9765,1.98,1.9844,1.9887,1.9944,1.9989,2.0086,2.0099,2.0151,2.0141,2.0215,2.0149,2.0152,2.0144,2.014,2.0147,2.0227,2.0229,2.0231,2.0233,0,1.9703,1.9702,1.975,1.9801,1.9841,1.988,1.9916,1.9945,1.9943,1.9985,2.0045,2.0081,2.0151,2.0208,2.026,2.0278,2.0256,2.0254,2.0272,2.0276,2.0275,2.0278,2.0056,2.0248,2.0247,2.0246,2.0245,2.0244,1.9821,1.987,1.9903,1.9958,1.9985,2.002,2.0068,2.0081,2.0131,2.0187,2.0181,2.0249,2.0283,2.035,2.0373,2.0426,2.0401,2.0427,2.0434,2.044,2.0448,2.0267,2.0436,2.0435,2.0435,2.0434,2.0434,0,1.9983,2.0004,2.0055,2.0107,2.0152,2.0128,2.0167,2.0206,2.0266,2.03,2.0345,2.0417,2.0473,2.0492,2.0547,2.0587,2.0578,2.0602,2.0599,2.0604,2.0467,2.0446,2.0608,2.0608,2.0608,2.0608,2.0608,2.0608,2.0073,2.0156,2.0159,2.0256,2.0275,2.0342,2.0367,2.04,2.0427,2.0507,2.0555,2.0567,2.0595,2.0653,2.0704,2.0708,2.073,2.0758,2.0758,2.063,2.0613,2.0596,2.0577,2.0763,2.0763,2.089,2.0891,2.0892]},{"header":{"parameterUnit":"m.s-1","parameterCategory":1,"la1":30.2991,"la2":30.254,"lo1":-89.0895,"lo2":-89.0444,"dy":0.0017,"dx":0.0017,"nx":28,"ny":28,"refTime":"2025-01-15T09:00:00:Z","depth":0,"parameterNumber":3,"parameterNumberName":"V-component_of_WINDS"},"data":[0,0,0,0,0,0,0,0,0,0,0,0,0,0,0,0,0,0,0,0,0,0,0,0,0,0,0,0,0,0,0,0,0,0,0,0,0,0,0,0,0,0,0,0,0,0,0,0,0,0,0,0,0,0,0,0,0,0,-1.2435,-1.2435,0,-1.2442,-1.2442,-1.2442,-1.2427,-1.2427,-1.2426,-1.2426,-1.2431,-1.2432,-1.2433,0,0,0,0,0,0,0,0,0,0,0,0,0,-1.2409,-1.2409,-1.2435,-1.2435,-1.2435,-1.2442,-1.2442,-1.2442,-1.2427,-1.2427,-1.2426,-1.2426,-1.2431,-1.2432,-1.2433,0,0,0,0,0,0,0,0,0,0,0,0,0,-1.2418,-1.241,-1.2435,-1.2429,-1.2428,-1.2442,-1.2442,-1.2442,-1.2427,-1.2427,-1.2426,-1.2425,-1.2431,-1.2432,-1.2433,-1.2453,0,0,-1.2435,-1.2436,0,0,0,0,0,0,0,0,-1.2418,-1.2419,-1.243,-1.2429,-1.2429,-1.2433,-1.2435,-1.2446,-1.2428,-1.2428,-1.2426,-1.2425,-1.2432,-1.2433,-1.2436,-1.2453,-1.2453,-1.2436,-1.2436,-1.2436,-1.2437,0,0,0,0,0,0,0,-1.2417,-1.2419,-1.2438,-1.243,-1.2429,-1.2425,-1.2426,-1.2437,-1.2434,-1.2428,-1.2427,-1.2428,-1.2432,-1.2435,-1.2436,-1.2453,-1.2435,-1.2436,-1.2437,-1.2437,-1.2487,-1.2488,0,0,0,0,0,0,-1.2418,-1.2419,-1.2438,-1.2438,-1.2421,-1.2427,-1.2427,-1.2432,-1.2434,-1.2433,-1.2428,-1.2427,-1.2434,-1.2435,-1.2436,-1.246,-1.2436,-1.2437,-1.2438,-1.2487,-1.2488,-1.2488,0,0,0,0,0,0,-1.2417,-1.2419,-1.2437,-1.2428,-1.243,-1.2428,-1.2434,-1.2433,-1.2436,-1.2434,-1.2434,-1.2432,-1.2433,-1.2435,-1.2449,-1.246,-1.2438,-1.2438,-1.2486,-1.2487,-1.2488,-1.2507,0,0,0,0,0,0,-1.2416,-1.2419,-1.2427,-1.2428,-1.2431,-1.245,-1.2434,-1.2434,-1.2438,-1.2436,-1.2438,-1.2437,-1.2433,-1.2448,-1.245,-1.246,-1.2439,-1.2485,-1.2486,-1.2488,-1.2505,-1.2508,-1.2511,0,0,0,0,0,-1.2415,-1.2431,-1.2427,-1.243,-1.244,-1.2451,-1.2452,-1.2447,-1.2439,-1.2446,-1.2445,-1.2437,-1.2458,-1.2449,-1.2451,-1.2463,-1.2484,-1.2486,-1.2488,-1.2504,-1.2508,-1.2511,0,0,0,0,0,0,-1.243,-1.2431,-1.2427,-1.2444,-1.2447,-1.2448,-1.2457,-1.2452,-1.2457,-1.2455,-1.2449,-1.245,-1.2465,-1.2465,-1.2455,-1.2482,-1.247,-1.2472,-1.2481,-1.2485,-1.2488,-1.2487,-1.244,0,0,0,0,0,-1.2435,-1.2444,-1.2445,-1.246,-1.2462,-1.2459,-1.2464,-1.246,-1.2463,-1.2465,-1.2465,-1.2468,-1.2476,-1.248,-1.2487,-1.2506,-1.2506,-1.2514,-1.2518,-1.252,-1.2522,-1.2532,-1.2536,-1.2494,-1.2494,-1.2494,0,0,-1.2446,-1.2448,-1.2453,-1.2463,-1.2465,-1.2474,-1.2461,-1.2471,-1.2478,-1.2466,-1.2479,-1.248,-1.2483,-1.25,-1.2507,-1.25,-1.2534,-1.2522,-1.2524,-1.2525,-1.2534,-1.2538,-1.2542,-1.2496,-1.2495,-1.2495,0,0,-1.247,-1.2472,-1.2485,-1.2488,-1.2493,-1.2491,-1.2494,-1.2497,-1.2497,-1.251,-1.2502,-1.251,-1.2523,-1.2526,-1.2529,-1.2556,-1.2549,-1.2559,-1.2574,-1.2584,-1.2587,-1.259,-1.26,-1.2603,-1.2561,-1.2561,-1.2561,0,-1.2482,-1.2496,-1.2492,-1.2503,-1.2508,-1.2499,-1.2512,-1.2515,-1.2521,-1.2524,-1.2517,-1.2534,-1.2536,-1.2553,-1.256,-1.2563,-1.2566,-1.2558,-1.2587,-1.259,-1.2593,-1.2602,-1.2605,-1.2562,-1.2562,-1.2562,-1.2562,0,-1.2511,-1.2521,-1.2531,-1.2538,-1.2544,-1.2556,-1.2554,-1.256,-1.2556,-1.2556,-1.257,-1.2572,-1.2579,-1.2583,-1.2579,-1.26,-1.2596,-1.2589,-1.2575,-1.2598,-1.2606,-1.261,-1.2563,-1.2563,-1.2563,-1.2562,0,0,-1.2542,-1.2549,-1.2552,-1.2556,-1.2561,-1.2568,-1.258,-1.2588,-1.2594,-1.2599,-1.2608,-1.2621,-1.2614,-1.2618,-1.2614,-1.2623,-1.2645,-1.2614,-1.2614,-1.262,-1.2668,-1.2673,-1.2677,-1.2641,-1.2641,-1.2642,-1.2667,0,-1.2566,-1.2587,-1.2585,-1.2605,-1.2614,-1.2607,-1.2617,-1.2622,-1.2622,-1.263,-1.263,-1.2639,-1.2629,-1.2632,-1.264,-1.264,-1.2654,-1.2638,-1.2649,-1.2649,-1.2648,-1.2681,-1.2686,-1.271,-1.2671,-1.2671,-1.2672,0,-1.2595,-1.2603,-1.2624,-1.2629,-1.2632,-1.2642,-1.265,-1.2657,-1.2662,-1.2662,-1.2667,-1.2663,-1.2675,-1.2663,-1.2679,-1.2669,-1.2673,-1.2674,-1.2675,-1.2675,-1.2661,-1.2682,-1.2718,-1.2721,-1.2677,-1.2676,-1.2676,0,-1.2616,-1.2631,-1.2646,-1.2649,-1.2655,-1.2662,-1.2665,-1.2669,-1.2674,-1.2681,-1.2685,-1.2693,-1.2697,-1.2703,-1.2701,-1.2692,-1.2718,-1.2705,-1.2717,-1.2718,-1.2722,-1.2722,-1.2759,-1.2726,-1.2726,-1.2726,-1.2726,0,-1.2641,-1.2655,-1.2655,-1.2664,-1.2679,-1.2677,-1.2691,-1.2693,-1.2697,-1.2706,-1.2701,-1.271,-1.2707,-1.2715,-1.2714,-1.2728,-1.273,-1.273,-1.2729,-1.273,-1.273,-1.2732,-1.273,-1.2727,-1.2727,-1.2727,-1.2727,0,-1.2666,-1.2667,-1.2682,-1.2688,-1.2689,-1.27,-1.2704,-1.2713,-1.2713,-1.2725,-1.2728,-1.2729,-1.2738,-1.2737,-1.2748,-1.2747,-1.2765,-1.2762,-1.2763,-1.2762,-1.2774,-1.2773,-1.2814,-1.2819,-1.2783,-1.2784,-1.2784,0,-1.2682,-1.2692,-1.2699,-1.2705,-1.2709,-1.2719,-1.2724,-1.2723,-1.273,-1.2737,-1.2745,-1.2754,-1.2762,-1.2778,-1.2779,-1.2788,-1.2785,-1.2799,-1.2786,-1.2787,-1.2785,-1.2784,-1.2785,-1.2801,-1.2801,-1.2802,-1.2802,0,-1.271,-1.271,-1.2719,-1.2729,-1.2737,-1.2744,-1.275,-1.2756,-1.2755,-1.2763,-1.2773,-1.2779,-1.2791,-1.2801,-1.2809,-1.2812,-1.2807,-1.2806,-1.281,-1.281,-1.281,-1.281,-1.2769,-1.2805,-1.2805,-1.2805,-1.2804,-1.2804,-1.273,-1.2739,-1.2746,-1.2756,-1.2762,-1.2769,-1.2777,-1.278,-1.2789,-1.2799,-1.2798,-1.281,-1.2815,-1.2826,-1.283,-1.2839,-1.2834,-1.2839,-1.284,-1.2841,-1.2842,-1.2809,-1.2841,-1.2841,-1.284,-1.284,-1.284,0,-1.2758,-1.2762,-1.2772,-1.2782,-1.2791,-1.2787,-1.2795,-1.2802,-1.2813,-1.2819,-1.2827,-1.284,-1.2849,-1.2852,-1.2862,-1.2869,-1.2867,-1.2871,-1.287,-1.2871,-1.2846,-1.2842,-1.2873,-1.2873,-1.2873,-1.2873,-1.2873,-1.2873,-1.2773,-1.2788,-1.279,-1.2808,-1.2812,-1.2825,-1.2829,-1.2836,-1.2841,-1.2855,-1.2864,-1.2866,-1.2871,-1.2881,-1.289,-1.2891,-1.2894,-1.2899,-1.2899,-1.2876,-1.2872,-1.2869,-1.2866,-1.29,-1.29,-1.2923,-1.2923,-1.2923]}]]